,,,PA_Meas_PMT16A,,PR_Meas_QMR101_102,,RH_Meas_QMH101,,SR_Meas_QMS101,,TA_Meas_QMH101,,GenWind,,GenWind,
date,time,status,PA,status,PR,status,RH,status,SR,status,TA,status,DirAvg,status,SpdAvg,
2009-02-10, 00:00:04,VALID,1010.51,VALID,0,VALID,94.4678,VALID,0,VALID,23.2636,VALID,312,VALID,0.0792969,
2009-02-10, 00:01:04,VALID,1010.47,VALID,0,VALID,94.4602,VALID,0,VALID,23.2441,VALID,344,VALID,0.439844,
2009-02-10, 00:02:04,VALID,1010.47,VALID,0,VALID,94.4221,VALID,0,VALID,23.2051,VALID,344,VALID,0.157031,
2009-02-10, 00:03:04,VALID,1010.46,VALID,0,VALID,94.5517,VALID,0,VALID,23.2051,VALID,313,VALID,0.133594,
2009-02-10, 00:04:04,VALID,1010.45,VALID,0,VALID,94.6051,VALID,0,VALID,23.1857,VALID,313,VALID,0,
2009-02-10, 00:05:04,VALID,1010.44,VALID,0,VALID,94.6661,VALID,0,VALID,23.1679,VALID,313,VALID,0,
2009-02-10, 00:06:04,VALID,1010.45,VALID,0,VALID,94.7424,VALID,0,VALID,23.1679,VALID,313,VALID,0,
2009-02-10, 00:07:04,VALID,1010.45,VALID,0,VALID,94.8415,VALID,0.105969,VALID,23.1272,VALID,313,VALID,0.0140625,
2009-02-10, 00:08:04,VALID,1010.44,VALID,0,VALID,94.8644,VALID,0,VALID,23.1272,VALID,313,VALID,0.00195313,
2009-02-10, 00:09:04,VALID,1010.44,VALID,0,VALID,94.933,VALID,0,VALID,23.129,VALID,313,VALID,0.0773437,
2009-02-10, 00:10:04,VALID,1010.45,VALID,0,VALID,94.994,VALID,0,VALID,23.1077,VALID,313,VALID,0,
2009-02-10, 00:11:04,VALID,1010.43,VALID,0,VALID,95.0626,VALID,0,VALID,23.129,VALID,313,VALID,0,
2009-02-10, 00:12:04,VALID,1010.45,VALID,0,VALID,95.1389,VALID,0,VALID,23.1077,VALID,313,VALID,0,
2009-02-10, 00:13:04,VALID,1010.4,VALID,0,VALID,95.2075,VALID,0,VALID,23.1272,VALID,313,VALID,0,
2009-02-10, 00:14:04,VALID,1010.4,VALID,0,VALID,95.2304,VALID,0,VALID,23.1485,VALID,313,VALID,0,
2009-02-10, 00:15:04,VALID,1010.4,VALID,0,VALID,95.2075,VALID,0,VALID,23.1272,VALID,314,VALID,0,
2009-02-10, 00:16:04,VALID,1010.39,VALID,0,VALID,95.1923,VALID,0,VALID,23.1467,VALID,318,VALID,0.201953,
2009-02-10, 00:17:04,VALID,1010.37,VALID,0,VALID,95.177,VALID,0,VALID,23.1272,VALID,337,VALID,0.25625,
2009-02-10, 00:18:04,VALID,1010.36,VALID,0,VALID,95.1694,VALID,0,VALID,23.1485,VALID,337,VALID,0.289844,
2009-02-10, 00:19:04,VALID,1010.37,VALID,0,VALID,95.1923,VALID,0,VALID,23.1485,VALID,337,VALID,0,
2009-02-10, 00:20:04,VALID,1010.34,VALID,0,VALID,95.2304,VALID,0.105969,VALID,23.1467,VALID,337,VALID,0.00234375,
2009-02-10, 00:21:04,VALID,1010.33,VALID,0,VALID,95.2152,VALID,0.105969,VALID,23.1485,VALID,337,VALID,0,
2009-02-10, 00:22:04,VALID,1010.31,VALID,0,VALID,95.2457,VALID,0,VALID,23.1485,VALID,337,VALID,0,
2009-02-10, 00:23:04,VALID,1010.29,VALID,0,VALID,95.2838,VALID,0,VALID,23.1485,VALID,337,VALID,0,
2009-02-10, 00:24:04,VALID,1010.28,VALID,0,VALID,95.299,VALID,0,VALID,23.1272,VALID,337,VALID,0,
2009-02-10, 00:25:04,VALID,1010.27,VALID,0,VALID,95.3524,VALID,0,VALID,23.1467,VALID,337,VALID,0,
2009-02-10, 00:26:04,VALID,1010.25,VALID,0,VALID,95.3905,VALID,0.105969,VALID,23.1679,VALID,337,VALID,0,
2009-02-10, 00:27:04,VALID,1010.27,VALID,0,VALID,95.3905,VALID,0,VALID,23.1679,VALID,337,VALID,0,
2009-02-10, 00:28:04,VALID,1010.24,VALID,0,VALID,95.3982,VALID,0,VALID,23.1679,VALID,337,VALID,0,
2009-02-10, 00:29:04,VALID,1010.27,VALID,0,VALID,95.3982,VALID,0,VALID,23.1467,VALID,337,VALID,0,
2009-02-10, 00:30:04,VALID,1010.24,VALID,0,VALID,95.4134,VALID,0,VALID,23.1485,VALID,337,VALID,0,
2009-02-10, 00:31:04,VALID,1010.25,VALID,0,VALID,95.4134,VALID,0,VALID,23.1679,VALID,337,VALID,0,
2009-02-10, 00:32:04,VALID,1010.23,VALID,0,VALID,95.4211,VALID,0,VALID,23.1485,VALID,337,VALID,0,
2009-02-10, 00:33:04,VALID,1010.23,VALID,0,VALID,95.4211,VALID,0,VALID,23.1485,VALID,337,VALID,0,
2009-02-10, 00:34:04,VALID,1010.22,VALID,0,VALID,95.4363,VALID,0,VALID,23.1679,VALID,337,VALID,0,
2009-02-10, 00:35:04,VALID,1010.2,VALID,0,VALID,95.4439,VALID,0,VALID,23.1679,VALID,337,VALID,0,
2009-02-10, 00:36:04,VALID,1010.2,VALID,0,VALID,95.4592,VALID,0,VALID,23.1272,VALID,337,VALID,0,
2009-02-10, 00:37:04,VALID,1010.18,VALID,0,VALID,95.4287,VALID,0,VALID,23.1272,VALID,337,VALID,0,
2009-02-10, 00:38:04,VALID,1010.18,VALID,0,VALID,95.4363,VALID,0,VALID,23.1485,VALID,337,VALID,0,
2009-02-10, 00:39:04,VALID,1010.17,VALID,0,VALID,95.4439,VALID,0.105969,VALID,23.1485,VALID,337,VALID,0,
2009-02-10, 00:40:04,VALID,1010.15,VALID,0,VALID,95.4821,VALID,0,VALID,23.1485,VALID,337,VALID,0,
2009-02-10, 00:41:04,VALID,1010.12,VALID,0,VALID,95.4744,VALID,0,VALID,23.1485,VALID,337,VALID,0,
2009-02-10, 00:42:04,VALID,1010.13,VALID,0,VALID,95.5049,VALID,0.105969,VALID,23.1467,VALID,337,VALID,0,
2009-02-10, 00:43:04,VALID,1010.11,VALID,0,VALID,95.5202,VALID,0.105969,VALID,23.1272,VALID,337,VALID,0,
2009-02-10, 00:44:04,VALID,1010.12,VALID,0,VALID,95.5049,VALID,0.105969,VALID,23.1467,VALID,337,VALID,0,
2009-02-10, 00:45:04,VALID,1010.11,VALID,0,VALID,95.5049,VALID,0.105969,VALID,23.106,VALID,337,VALID,0,
2009-02-10, 00:46:04,VALID,1010.11,VALID,0,VALID,95.5202,VALID,0.211938,VALID,23.1272,VALID,337,VALID,0,
2009-02-10, 00:47:04,VALID,1010.13,VALID,0,VALID,95.5126,VALID,0.105969,VALID,23.0865,VALID,337,VALID,0,
2009-02-10, 00:48:04,VALID,1010.12,VALID,0,VALID,95.5049,VALID,0.105969,VALID,23.1077,VALID,337,VALID,0,
2009-02-10, 00:49:04,VALID,1010.11,VALID,0,VALID,95.5049,VALID,0.105969,VALID,23.0883,VALID,337,VALID,0,
2009-02-10, 00:50:04,VALID,1010.1,VALID,0,VALID,95.5278,VALID,0.105969,VALID,23.1077,VALID,337,VALID,0,
2009-02-10, 00:51:04,VALID,1010.1,VALID,0,VALID,95.5278,VALID,0.105969,VALID,23.0883,VALID,337,VALID,0,
2009-02-10, 00:52:04,VALID,1010.09,VALID,0,VALID,95.5278,VALID,0.105969,VALID,23.0493,VALID,337,VALID,0,
2009-02-10, 00:53:04,VALID,1010.08,VALID,0,VALID,95.5431,VALID,0.105969,VALID,23.0493,VALID,337,VALID,0,
2009-02-10, 00:54:04,VALID,1010.11,VALID,0,VALID,95.5507,VALID,0.105969,VALID,23.0298,VALID,337,VALID,0,
2009-02-10, 00:55:04,VALID,1010.12,VALID,0,VALID,95.5659,VALID,0.105969,VALID,23.0493,VALID,337,VALID,0,
2009-02-10, 00:56:04,VALID,1010.1,VALID,0,VALID,95.5812,VALID,0.105969,VALID,23.0086,VALID,337,VALID,0,
2009-02-10, 00:57:04,VALID,1010.09,VALID,0,VALID,95.6117,VALID,0,VALID,23.0316,VALID,337,VALID,0,
2009-02-10, 00:58:04,VALID,1010.08,VALID,0,VALID,95.6422,VALID,0,VALID,23.0316,VALID,337,VALID,0,
2009-02-10, 00:59:04,VALID,1010.09,VALID,0,VALID,95.6956,VALID,0,VALID,23.0511,VALID,337,VALID,0,
2009-02-10, 01:00:04,VALID,1010.09,VALID,0,VALID,95.7185,VALID,0,VALID,23.0511,VALID,337,VALID,0,
2009-02-10, 01:01:04,VALID,1010.15,VALID,0,VALID,95.7261,VALID,0,VALID,23.0511,VALID,337,VALID,0,
2009-02-10, 01:02:04,VALID,1010.13,VALID,0,VALID,95.7337,VALID,0.105969,VALID,23.0511,VALID,337,VALID,0,
2009-02-10, 01:03:04,VALID,1010.14,VALID,0,VALID,95.7718,VALID,0,VALID,23.0493,VALID,337,VALID,0,
2009-02-10, 01:04:04,VALID,1010.14,VALID,0,VALID,95.7642,VALID,0,VALID,23.0316,VALID,337,VALID,0,
2009-02-10, 01:05:04,VALID,1010.13,VALID,0,VALID,95.7718,VALID,0,VALID,23.0298,VALID,337,VALID,0,
2009-02-10, 01:06:04,VALID,1010.15,VALID,0,VALID,95.81,VALID,0,VALID,23.0511,VALID,337,VALID,0,
2009-02-10, 01:07:04,VALID,1010.14,VALID,0,VALID,95.8481,VALID,0,VALID,23.0493,VALID,337,VALID,0,
2009-02-10, 01:08:04,VALID,1010.14,VALID,0,VALID,95.8405,VALID,0,VALID,23.0493,VALID,337,VALID,0,
2009-02-10, 01:09:04,VALID,1010.11,VALID,0,VALID,95.8633,VALID,0,VALID,23.0688,VALID,271,VALID,0,
2009-02-10, 01:10:04,VALID,1010.1,VALID,0,VALID,95.8862,VALID,0.105969,VALID,23.1095,VALID,269,VALID,0,
2009-02-10, 01:11:04,VALID,1010.11,VALID,0,VALID,95.871,VALID,0,VALID,23.1095,VALID,269,VALID,0,
2009-02-10, 01:12:04,VALID,1010.12,VALID,0,VALID,95.8786,VALID,0,VALID,23.129,VALID,269,VALID,0,
2009-02-10, 01:13:04,VALID,1010.11,VALID,0,VALID,95.9015,VALID,0,VALID,23.1485,VALID,269,VALID,0,
2009-02-10, 01:14:04,VALID,1010.14,VALID,0,VALID,95.8862,VALID,0,VALID,23.1679,VALID,269,VALID,0,
2009-02-10, 01:15:04,VALID,1010.14,VALID,0,VALID,95.8939,VALID,0,VALID,23.1874,VALID,269,VALID,0,
2009-02-10, 01:16:04,VALID,1010.14,VALID,0,VALID,95.8633,VALID,0,VALID,23.1874,VALID,269,VALID,0,
2009-02-10, 01:17:04,VALID,1010.12,VALID,0,VALID,95.8557,VALID,0,VALID,23.1662,VALID,269,VALID,0,
2009-02-10, 01:18:04,VALID,1010.11,VALID,0,VALID,95.8481,VALID,0,VALID,23.2069,VALID,269,VALID,0,
2009-02-10, 01:19:04,VALID,1010.09,VALID,0,VALID,95.8557,VALID,0,VALID,23.2264,VALID,269,VALID,0,
2009-02-10, 01:20:04,VALID,1010.08,VALID,0,VALID,95.8633,VALID,0,VALID,23.2264,VALID,269,VALID,0,
2009-02-10, 01:21:04,VALID,1010.08,VALID,0,VALID,95.8633,VALID,0,VALID,23.2264,VALID,275,VALID,0.536719,
2009-02-10, 01:22:04,VALID,1010.1,VALID,0,VALID,95.8633,VALID,0,VALID,23.2654,VALID,268,VALID,0.0578125,
2009-02-10, 01:23:04,VALID,1010.08,VALID,0,VALID,95.8481,VALID,0,VALID,23.3043,VALID,312,VALID,0.0683594,
2009-02-10, 01:24:04,VALID,1010.04,VALID,0,VALID,95.7718,VALID,0,VALID,23.3433,VALID,305,VALID,0.596875,
2009-02-10, 01:25:04,VALID,1010.04,VALID,0,VALID,95.6651,VALID,0,VALID,23.3823,VALID,295,VALID,0.570313,
2009-02-10, 01:26:04,VALID,1010.07,VALID,0,VALID,95.5278,VALID,0,VALID,23.4212,VALID,298,VALID,0.288672,
2009-02-10, 01:27:04,VALID,1010.02,VALID,0,VALID,95.3372,VALID,0,VALID,23.4797,VALID,305,VALID,0.0832031,
2009-02-10, 01:28:04,VALID,1010.01,VALID,0,VALID,95.116,VALID,0,VALID,23.4992,VALID,290,VALID,0.434766,
2009-02-10, 01:29:04,VALID,1010.04,VALID,0,VALID,94.8415,VALID,0,VALID,23.5186,VALID,306,VALID,0.543359,
2009-02-10, 01:30:04,VALID,1010.03,VALID,0,VALID,94.5975,VALID,0,VALID,23.5381,VALID,316,VALID,0.326953,
2009-02-10, 01:31:04,VALID,1010.02,VALID,0,VALID,94.3916,VALID,0,VALID,23.5576,VALID,308,VALID,0.215625,
2009-02-10, 01:32:04,VALID,1010,VALID,0,VALID,94.1933,VALID,0,VALID,23.5771,VALID,298,VALID,0.679688,
2009-02-10, 01:33:04,VALID,1009.99,VALID,0,VALID,93.9722,VALID,0,VALID,23.5966,VALID,304,VALID,0.644141,
2009-02-10, 01:34:04,VALID,1009.98,VALID,0,VALID,93.8349,VALID,0,VALID,23.5966,VALID,304,VALID,0.263672,
2009-02-10, 01:35:04,VALID,1009.95,VALID,0,VALID,93.7281,VALID,0,VALID,23.5966,VALID,299,VALID,0.353125,
2009-02-10, 01:36:04,VALID,1009.93,VALID,0,VALID,93.6442,VALID,0,VALID,23.5966,VALID,308,VALID,0.185547,
2009-02-10, 01:37:04,VALID,1009.91,VALID,0,VALID,93.5985,VALID,0,VALID,23.5966,VALID,303,VALID,0.071875,
2009-02-10, 01:38:04,VALID,1009.91,VALID,0,VALID,93.6519,VALID,0,VALID,23.5771,VALID,310,VALID,0.652734,
2009-02-10, 01:39:04,VALID,1009.86,VALID,0,VALID,93.6442,VALID,0,VALID,23.5576,VALID,327,VALID,0.146484,
2009-02-10, 01:40:04,VALID,1009.84,VALID,0,VALID,93.6748,VALID,0,VALID,23.5381,VALID,314,VALID,0.257031,
2009-02-10, 01:41:04,VALID,1009.85,VALID,0,VALID,93.6824,VALID,0,VALID,23.5186,VALID,311,VALID,0.242188,
2009-02-10, 01:42:04,VALID,1009.84,VALID,0,VALID,93.7586,VALID,0,VALID,23.4974,VALID,299,VALID,0.258203,
2009-02-10, 01:43:04,VALID,1009.85,VALID,0,VALID,93.7739,VALID,0.105969,VALID,23.4974,VALID,287,VALID,0,
2009-02-10, 01:44:04,VALID,1009.85,VALID,0,VALID,93.7815,VALID,0,VALID,23.4779,VALID,348,VALID,0.582812,
2009-02-10, 01:45:04,VALID,1009.83,VALID,0,VALID,93.8425,VALID,0.105969,VALID,23.4372,VALID,355,VALID,0.446875,
2009-02-10, 01:46:04,VALID,1009.84,VALID,0,VALID,93.9264,VALID,0.105969,VALID,23.4194,VALID,346,VALID,0.332031,
2009-02-10, 01:47:04,VALID,1009.83,VALID,0,VALID,93.995,VALID,0.105969,VALID,23.3805,VALID,339,VALID,0.429688,
2009-02-10, 01:48:04,VALID,1009.88,VALID,0,VALID,94.0942,VALID,0.105969,VALID,23.361,VALID,338,VALID,0.189453,
2009-02-10, 01:49:04,VALID,1009.87,VALID,0,VALID,94.1857,VALID,0.105969,VALID,23.322,VALID,338,VALID,0,
2009-02-10, 01:50:04,VALID,1009.86,VALID,0,VALID,94.3153,VALID,0.105969,VALID,23.2813,VALID,338,VALID,0,
2009-02-10, 01:51:04,VALID,1009.87,VALID,0,VALID,94.4145,VALID,0,VALID,23.3026,VALID,344,VALID,0.015625,
2009-02-10, 01:52:04,VALID,1009.88,VALID,0,VALID,94.4831,VALID,0.105969,VALID,23.2441,VALID,16,VALID,0.372656,
2009-02-10, 01:53:04,VALID,1009.85,VALID,0,VALID,94.5593,VALID,0.105969,VALID,23.2441,VALID,356,VALID,0.316406,
2009-02-10, 01:54:04,VALID,1009.86,VALID,0,VALID,94.6356,VALID,0.105969,VALID,23.2246,VALID,356,VALID,0.028125,
2009-02-10, 01:55:04,VALID,1009.87,VALID,0,VALID,94.6966,VALID,0,VALID,23.2051,VALID,356,VALID,0,
2009-02-10, 01:56:04,VALID,1009.89,VALID,0,VALID,94.7271,VALID,0.105969,VALID,23.1857,VALID,357,VALID,0,
2009-02-10, 01:57:04,VALID,1009.89,VALID,0,VALID,94.8034,VALID,0,VALID,23.1662,VALID,2,VALID,0,
2009-02-10, 01:58:04,VALID,1009.89,VALID,0,VALID,94.872,VALID,0,VALID,23.1679,VALID,2,VALID,0,
2009-02-10, 01:59:04,VALID,1009.88,VALID,0,VALID,94.9025,VALID,0,VALID,23.129,VALID,2,VALID,0,
2009-02-10, 02:00:04,VALID,1009.86,VALID,0,VALID,94.9254,VALID,0,VALID,23.129,VALID,2,VALID,0,
2009-02-10, 02:01:04,VALID,1009.89,VALID,0,VALID,94.9788,VALID,0,VALID,23.09,VALID,21,VALID,0,
2009-02-10, 02:02:04,VALID,1009.9,VALID,0,VALID,95.0245,VALID,0,VALID,23.0705,VALID,21,VALID,0,
2009-02-10, 02:03:04,VALID,1009.88,VALID,0,VALID,95.0626,VALID,0,VALID,23.0316,VALID,21,VALID,0,
2009-02-10, 02:04:04,VALID,1009.88,VALID,0,VALID,95.1313,VALID,0,VALID,23.0103,VALID,21,VALID,0,
2009-02-10, 02:05:04,VALID,1009.88,VALID,0,VALID,95.1923,VALID,0,VALID,23.0121,VALID,21,VALID,0,
2009-02-10, 02:06:04,VALID,1009.89,VALID,0,VALID,95.2609,VALID,0,VALID,22.9909,VALID,21,VALID,0,
2009-02-10, 02:07:04,VALID,1009.89,VALID,0,VALID,95.3143,VALID,0,VALID,22.9926,VALID,21,VALID,0,
2009-02-10, 02:08:04,VALID,1009.88,VALID,0,VALID,95.3753,VALID,0,VALID,22.9926,VALID,21,VALID,0,
2009-02-10, 02:09:04,VALID,1009.86,VALID,0,VALID,95.4363,VALID,0,VALID,22.9731,VALID,21,VALID,0,
2009-02-10, 02:10:04,VALID,1009.87,VALID,0,VALID,95.4973,VALID,0,VALID,22.9731,VALID,21,VALID,0,
2009-02-10, 02:11:04,VALID,1009.85,VALID,0,VALID,95.5659,VALID,0,VALID,22.9731,VALID,21,VALID,0,
2009-02-10, 02:12:04,VALID,1009.85,VALID,0,VALID,95.6346,VALID,0,VALID,22.9536,VALID,21,VALID,0,
2009-02-10, 02:13:04,VALID,1009.87,VALID,0,VALID,95.6346,VALID,0,VALID,22.9536,VALID,21,VALID,0,
2009-02-10, 02:14:04,VALID,1009.86,VALID,0,VALID,95.6651,VALID,0,VALID,22.9536,VALID,21,VALID,0,
2009-02-10, 02:15:04,VALID,1009.86,VALID,0,VALID,95.7261,VALID,0,VALID,22.9536,VALID,21,VALID,0,
2009-02-10, 02:16:04,VALID,1009.85,VALID,0,VALID,95.7337,VALID,0,VALID,22.9536,VALID,21,VALID,0,
2009-02-10, 02:17:04,VALID,1009.87,VALID,0,VALID,95.7795,VALID,0,VALID,22.9536,VALID,21,VALID,0,
2009-02-10, 02:18:04,VALID,1009.83,VALID,0,VALID,95.7718,VALID,0,VALID,22.9342,VALID,21,VALID,0,
2009-02-10, 02:19:04,VALID,1009.82,VALID,0,VALID,95.7566,VALID,0,VALID,22.9147,VALID,21,VALID,0,
2009-02-10, 02:20:04,VALID,1009.81,VALID,0,VALID,95.7718,VALID,0,VALID,22.8952,VALID,21,VALID,0,
2009-02-10, 02:21:04,VALID,1009.82,VALID,0,VALID,95.7795,VALID,0,VALID,22.8952,VALID,21,VALID,0,
2009-02-10, 02:22:04,VALID,1009.85,VALID,0,VALID,95.8176,VALID,0,VALID,22.874,VALID,21,VALID,0,
2009-02-10, 02:23:04,VALID,1009.83,VALID,0,VALID,95.8328,VALID,0,VALID,22.8757,VALID,21,VALID,0,
2009-02-10, 02:24:04,VALID,1009.85,VALID,0,VALID,95.8328,VALID,0,VALID,22.8757,VALID,21,VALID,0,
2009-02-10, 02:25:04,VALID,1009.86,VALID,0,VALID,95.8252,VALID,0,VALID,22.8562,VALID,21,VALID,0,
2009-02-10, 02:26:04,VALID,1009.88,VALID,0,VALID,95.8481,VALID,0,VALID,22.8562,VALID,21,VALID,0,
2009-02-10, 02:27:04,VALID,1009.84,VALID,0,VALID,95.8481,VALID,0,VALID,22.8757,VALID,21,VALID,0,
2009-02-10, 02:28:04,VALID,1009.86,VALID,0,VALID,95.9015,VALID,0.105969,VALID,22.874,VALID,21,VALID,0,
2009-02-10, 02:29:04,VALID,1009.9,VALID,0,VALID,95.9167,VALID,0.105969,VALID,22.8935,VALID,21,VALID,0,
2009-02-10, 02:30:04,VALID,1009.9,VALID,0,VALID,95.9396,VALID,0,VALID,22.874,VALID,21,VALID,0,
2009-02-10, 02:31:04,VALID,1009.9,VALID,0,VALID,95.9625,VALID,0,VALID,22.8935,VALID,21,VALID,0,
2009-02-10, 02:32:04,VALID,1009.9,VALID,0,VALID,95.993,VALID,0,VALID,22.8935,VALID,21,VALID,0,
2009-02-10, 02:33:04,VALID,1009.9,VALID,0,VALID,96.0159,VALID,0.105969,VALID,22.9129,VALID,21,VALID,0,
2009-02-10, 02:34:04,VALID,1009.92,VALID,0,VALID,96.0464,VALID,0.105969,VALID,22.9129,VALID,21,VALID,0,
2009-02-10, 02:35:04,VALID,1009.9,VALID,0,VALID,96.0464,VALID,0.105969,VALID,22.9129,VALID,21,VALID,0,
2009-02-10, 02:36:04,VALID,1009.89,VALID,0,VALID,96.0464,VALID,0,VALID,22.9129,VALID,21,VALID,0,
2009-02-10, 02:37:04,VALID,1009.87,VALID,0,VALID,96.0845,VALID,0.105969,VALID,22.9324,VALID,14,VALID,0,
2009-02-10, 02:38:04,VALID,1009.85,VALID,0,VALID,96.0692,VALID,0.105969,VALID,22.9324,VALID,14,VALID,0,
2009-02-10, 02:39:04,VALID,1009.87,VALID,0,VALID,96.0769,VALID,0.105969,VALID,22.9519,VALID,14,VALID,0,
2009-02-10, 02:40:04,VALID,1009.86,VALID,0,VALID,96.0692,VALID,0.105969,VALID,22.9519,VALID,14,VALID,0,
2009-02-10, 02:41:04,VALID,1009.87,VALID,0,VALID,96.0616,VALID,0.105969,VALID,22.9324,VALID,14,VALID,0,
2009-02-10, 02:42:04,VALID,1009.86,VALID,0,VALID,96.0616,VALID,0,VALID,22.9536,VALID,14,VALID,0,
2009-02-10, 02:43:04,VALID,1009.83,VALID,0,VALID,96.0311,VALID,0,VALID,22.9342,VALID,14,VALID,0,
2009-02-10, 02:44:04,VALID,1009.83,VALID,0,VALID,95.9854,VALID,0,VALID,22.9129,VALID,14,VALID,0,
2009-02-10, 02:45:04,VALID,1009.84,VALID,0,VALID,95.9625,VALID,0,VALID,22.9147,VALID,344,VALID,0,
2009-02-10, 02:46:04,VALID,1009.83,VALID,0,VALID,95.9854,VALID,0,VALID,22.8935,VALID,335,VALID,0.263672,
2009-02-10, 02:47:04,VALID,1009.85,VALID,0,VALID,95.9396,VALID,0,VALID,22.8935,VALID,335,VALID,0,
2009-02-10, 02:48:04,VALID,1009.84,VALID,0,VALID,95.9015,VALID,0,VALID,22.874,VALID,335,VALID,0,
2009-02-10, 02:49:04,VALID,1009.85,VALID,0,VALID,95.8862,VALID,0,VALID,22.8952,VALID,329,VALID,0.317578,
2009-02-10, 02:50:04,VALID,1009.84,VALID,0,VALID,95.8786,VALID,0,VALID,22.8757,VALID,322,VALID,0.532812,
2009-02-10, 02:51:04,VALID,1009.83,VALID,0,VALID,95.8786,VALID,0,VALID,22.8545,VALID,320,VALID,0.179688,
2009-02-10, 02:52:04,VALID,1009.82,VALID,0,VALID,95.871,VALID,0,VALID,22.8757,VALID,320,VALID,0,
2009-02-10, 02:53:04,VALID,1009.84,VALID,0,VALID,95.8481,VALID,0,VALID,22.8545,VALID,320,VALID,0.00429688,
2009-02-10, 02:54:04,VALID,1009.82,VALID,0,VALID,95.8557,VALID,0,VALID,22.8545,VALID,319,VALID,0.0625,
2009-02-10, 02:55:04,VALID,1009.79,VALID,0,VALID,95.8405,VALID,0,VALID,22.8562,VALID,319,VALID,0.129297,
2009-02-10, 02:56:04,VALID,1009.78,VALID,0,VALID,95.8557,VALID,0,VALID,22.8952,VALID,292,VALID,0,
2009-02-10, 02:57:04,VALID,1009.79,VALID,0,VALID,95.8405,VALID,0,VALID,22.8952,VALID,290,VALID,0.01875,
2009-02-10, 02:58:04,VALID,1009.79,VALID,0,VALID,95.8023,VALID,0,VALID,22.8952,VALID,293,VALID,0.279297,
2009-02-10, 02:59:04,VALID,1009.79,VALID,0,VALID,95.7795,VALID,0,VALID,22.9342,VALID,306,VALID,0.229297,
2009-02-10, 03:00:04,VALID,1009.77,VALID,0,VALID,95.7261,VALID,0,VALID,22.9342,VALID,306,VALID,0.00195313,
2009-02-10, 03:01:04,VALID,1009.78,VALID,0,VALID,95.6727,VALID,0,VALID,22.9342,VALID,306,VALID,0,
2009-02-10, 03:02:04,VALID,1009.79,VALID,0,VALID,95.5812,VALID,0,VALID,22.9147,VALID,306,VALID,0,
2009-02-10, 03:03:04,VALID,1009.76,VALID,0,VALID,95.5278,VALID,0,VALID,22.8952,VALID,306,VALID,0,
2009-02-10, 03:04:04,VALID,1009.76,VALID,0,VALID,95.4744,VALID,0,VALID,22.8757,VALID,306,VALID,0,
2009-02-10, 03:05:04,VALID,1009.75,VALID,0,VALID,95.4668,VALID,0,VALID,22.8757,VALID,319,VALID,0,
2009-02-10, 03:06:04,VALID,1009.71,VALID,0,VALID,95.4744,VALID,0,VALID,22.8757,VALID,319,VALID,0,
2009-02-10, 03:07:04,VALID,1009.73,VALID,0,VALID,95.4592,VALID,0,VALID,22.8562,VALID,319,VALID,0,
2009-02-10, 03:08:04,VALID,1009.71,VALID,0,VALID,95.4058,VALID,0,VALID,22.8368,VALID,319,VALID,0,
2009-02-10, 03:09:04,VALID,1009.7,VALID,0,VALID,95.4134,VALID,0,VALID,22.7961,VALID,319,VALID,0,
2009-02-10, 03:10:04,VALID,1009.7,VALID,0,VALID,95.4211,VALID,0,VALID,22.8173,VALID,319,VALID,0,
2009-02-10, 03:11:04,VALID,1009.69,VALID,0,VALID,95.4516,VALID,0,VALID,22.7978,VALID,319,VALID,0,
2009-02-10, 03:12:04,VALID,1009.71,VALID,0,VALID,95.5049,VALID,0,VALID,22.7783,VALID,327,VALID,0,
2009-02-10, 03:13:04,VALID,1009.7,VALID,0,VALID,95.5126,VALID,0,VALID,22.7588,VALID,327,VALID,0,
2009-02-10, 03:14:04,VALID,1009.71,VALID,0,VALID,95.5659,VALID,0,VALID,22.7588,VALID,327,VALID,0,
2009-02-10, 03:15:04,VALID,1009.71,VALID,0,VALID,95.6193,VALID,0,VALID,22.7394,VALID,333,VALID,0,
2009-02-10, 03:16:04,VALID,1009.69,VALID,0,VALID,95.6574,VALID,0,VALID,22.7394,VALID,345,VALID,0,
2009-02-10, 03:17:04,VALID,1009.71,VALID,0,VALID,95.7185,VALID,0,VALID,22.7394,VALID,355,VALID,0,
2009-02-10, 03:18:04,VALID,1009.72,VALID,0,VALID,95.6956,VALID,0,VALID,22.7394,VALID,355,VALID,0,
2009-02-10, 03:19:04,VALID,1009.7,VALID,0,VALID,95.6956,VALID,0,VALID,22.6987,VALID,355,VALID,0,
2009-02-10, 03:20:04,VALID,1009.69,VALID,0,VALID,95.7032,VALID,0,VALID,22.7004,VALID,350,VALID,0,
2009-02-10, 03:21:04,VALID,1009.69,VALID,0,VALID,95.7337,VALID,0,VALID,22.6792,VALID,330,VALID,0,
2009-02-10, 03:22:04,VALID,1009.68,VALID,0,VALID,95.7261,VALID,0,VALID,22.6597,VALID,331,VALID,0,
2009-02-10, 03:23:04,VALID,1009.68,VALID,0,VALID,95.7108,VALID,0,VALID,22.6614,VALID,339,VALID,0,
2009-02-10, 03:24:04,VALID,1009.66,VALID,0,VALID,95.7261,VALID,0,VALID,22.6614,VALID,343,VALID,0,
2009-02-10, 03:25:04,VALID,1009.65,VALID,0,VALID,95.7718,VALID,0,VALID,22.6614,VALID,345,VALID,0,
2009-02-10, 03:26:04,VALID,1009.67,VALID,0,VALID,95.7947,VALID,0,VALID,22.642,VALID,15,VALID,0,
2009-02-10, 03:27:04,VALID,1009.67,VALID,0,VALID,95.7871,VALID,0,VALID,22.6437,VALID,15,VALID,0,
2009-02-10, 03:28:04,VALID,1009.66,VALID,0,VALID,95.7795,VALID,0,VALID,22.603,VALID,15,VALID,0,
2009-02-10, 03:29:04,VALID,1009.65,VALID,0,VALID,95.7642,VALID,0,VALID,22.603,VALID,15,VALID,0,
2009-02-10, 03:30:04,VALID,1009.64,VALID,0,VALID,95.8023,VALID,0,VALID,22.5835,VALID,358,VALID,0,
2009-02-10, 03:31:04,VALID,1009.64,VALID,0,VALID,95.7795,VALID,0,VALID,22.564,VALID,358,VALID,0,
2009-02-10, 03:32:04,VALID,1009.64,VALID,0,VALID,95.7795,VALID,0,VALID,22.564,VALID,358,VALID,0,
2009-02-10, 03:33:04,VALID,1009.66,VALID,0,VALID,95.8481,VALID,0,VALID,22.5251,VALID,358,VALID,0,
2009-02-10, 03:34:04,VALID,1009.63,VALID,0,VALID,95.9167,VALID,0,VALID,22.5251,VALID,358,VALID,0,
2009-02-10, 03:35:04,VALID,1009.67,VALID,0,VALID,95.9701,VALID,0,VALID,22.5251,VALID,358,VALID,0,
2009-02-10, 03:36:04,VALID,1009.64,VALID,0,VALID,96.0006,VALID,0,VALID,22.5251,VALID,358,VALID,0,
2009-02-10, 03:37:04,VALID,1009.65,VALID,0,VALID,95.9549,VALID,0,VALID,22.5268,VALID,358,VALID,0,
2009-02-10, 03:38:04,VALID,1009.66,VALID,0,VALID,96.0006,VALID,0,VALID,22.4861,VALID,358,VALID,0,
2009-02-10, 03:39:04,VALID,1009.7,VALID,0,VALID,96.0159,VALID,0,VALID,22.4861,VALID,358,VALID,0,
2009-02-10, 03:40:04,VALID,1009.7,VALID,0,VALID,96.054,VALID,0,VALID,22.4861,VALID,358,VALID,0,
2009-02-10, 03:41:04,VALID,1009.71,VALID,0,VALID,96.0692,VALID,0,VALID,22.4667,VALID,358,VALID,0,
2009-02-10, 03:42:04,VALID,1009.68,VALID,0,VALID,96.0997,VALID,0,VALID,22.4455,VALID,358,VALID,0,
2009-02-10, 03:43:04,VALID,1009.67,VALID,0,VALID,96.1226,VALID,0,VALID,22.4455,VALID,358,VALID,0,
2009-02-10, 03:44:04,VALID,1009.69,VALID,0,VALID,96.1913,VALID,0.105969,VALID,22.465,VALID,358,VALID,0,
2009-02-10, 03:45:04,VALID,1009.7,VALID,0,VALID,96.2065,VALID,0.105969,VALID,22.465,VALID,358,VALID,0,
2009-02-10, 03:46:04,VALID,1009.74,VALID,0,VALID,96.2141,VALID,0.105969,VALID,22.4455,VALID,358,VALID,0,
2009-02-10, 03:47:04,VALID,1009.72,VALID,0,VALID,96.2065,VALID,0,VALID,22.426,VALID,358,VALID,0,
2009-02-10, 03:48:04,VALID,1009.75,VALID,0,VALID,96.2218,VALID,0,VALID,22.4065,VALID,358,VALID,0,
2009-02-10, 03:49:04,VALID,1009.77,VALID,0,VALID,96.237,VALID,0,VALID,22.4065,VALID,358,VALID,0,
2009-02-10, 03:50:04,VALID,1009.81,VALID,0,VALID,96.2599,VALID,0,VALID,22.4065,VALID,358,VALID,0,
2009-02-10, 03:51:04,VALID,1009.77,VALID,0,VALID,96.2828,VALID,0.105969,VALID,22.4065,VALID,358,VALID,0,
2009-02-10, 03:52:04,VALID,1009.79,VALID,0,VALID,96.3133,VALID,0,VALID,22.387,VALID,358,VALID,0,
2009-02-10, 03:53:04,VALID,1009.78,VALID,0,VALID,96.3285,VALID,0,VALID,22.387,VALID,358,VALID,0,